Regional Weather Roundup
Issued by NWS Bismarck, ND

Home | Current Version | Previous Version | Text Only | Print | Product List | Glossary On
Versions: 1 2 3 4 5 6 7 8 9 10 11 12 13 14 15 16 17 18 19 20 21 22 23 24 25 26 27 28 29 30 31 32 33 34 35 36 37 38 39 40 41 42 43 44 45 46 47 48 49 50
287
ASUS43 KBIS 071102
RWRBIS

NWR BROADCAST TEXT
NATIONAL WEATHER SERVICE BISMARCK ND
500 AM CST SUN FEB 07 2016

NOTE: "FAIR" INDICATES FEW OR NO CLOUDS BELOW 12,000 FEET WITH NO
SIGNIFICANT WEATHER AND/OR OBSTRUCTIONS TO VISIBILITY.


CITY           SKY/WX    TMP DP  RH WIND       PRES   REMARKS
WILLISTON      LGT SNOW  32  26  78 NW28G39   29.85R WCI  18
MINOT          FLURRIES  37  26  64 W31G41    29.67F
MINOT AFB      CLOUDY    35  31  86 W29G41    29.65S
BISMARCK       PTCLDY    38  24  57 W20G29    29.78F
DICKINSON      CLOUDY    33  16  49 W35G49    29.84R WCI  18
GARRISON         N/A     34  24  67 NW33G49   29.72F WCI  20
HETTINGER ARPT CLEAR     32  18  56 W31G40    29.92F WCI  17
JAMESTOWN      PTCLDY    36  22  56 NW28G39   29.64R
CARRINGTON     FAIR      34  27  75 W26G33    29.65S
OAKES          FAIR      36  27  69 W30G44    29.67R
STANLEY        FLURRIES  30  32 100 NW30G38   29.75S WCI  15
$$

CITY           SKY/WX    TMP DP  RH WIND       PRES   REMARKS
GRAND FORKS    CLOUDY    36  31  82 NW21      29.51R
GRAND FORKS AF CLOUDY    36  28  73 W26G37    29.50F
DEVILS LAKE    CLOUDY    33  26  75 W30G37    29.56F WCI  19
FARGO          CLOUDY    37  28  70 W22G32    29.57R
GRAFTON        LGT SNOW  34  34 100 W29G36    29.50R
GWINNER        FAIR      37  28  70 W23G31    29.66R
LANGDON        PTSUNNY   34  28  80 W29G41    29.48S
ROLLA          PTSUNNY   32  27  80 W24G33    29.54S WCI  19
$$

CITY           SKY/WX    TMP DP  RH WIND       PRES   REMARKS
ABERDEEN       MOCLDY    38  24  57 W24G33    29.78R
MOBRIDGE       MOCLDY    38  26  62 W17G31    29.83F
BUFFALO          N/A     34  16  47 NW30G41   29.95R
RAPID CITY     CLEAR     36  14  40 NW29G40   30.06R
GLASGOW        CLEAR     31  20  63 NW33G44   30.08R WCI  15
SIDNEY         CLOUDY    36  18  48 NW39G47   29.93R
WOLF POINT     MOCLDY    33  21  61 W20G28    30.02R
GLENDIVE       CLEAR     30  19  64 W31G44    30.00S WCI  15
MILES CITY     CLEAR     34  17  50 NW28G37   30.12R
BAKER          CLEAR     34  13  41 NW31G43   30.01S
$$

CITY           SKY/WX    TMP DP  RH WIND       PRES   REMARKS
BILLINGS       CLOUDY    34  15  46 NW20      30.28R
GREAT FALLS    CLEAR     23  15  71 SW13      30.33R WCI  11
$$





USA.gov is the U.S. government's official web portal to all federal, state and local government web resources and services.